{"data":{"norad_id":64923,"intl_designator":"2025-157V","name":"STARLINK-34643","alt_names":[],"object_type":"PAYLOAD","status":"ACTIVE","operator":null,"country":"US","launch_date":"2025-07-26","launch_site_code":"AFETR","launch_vehicle":null,"mission":null,"orbit_class":"UNKNOWN","rcs_meters":null,"size_class":null,"mass_kg":null,"dimensions":null,"purposes":["comms"],"wikipedia_slug":null,"has_3d_model":false,"image_url":null,"decayed_at":null,"tle_current":{"epoch":"2026-05-24T20:51:31.466880Z","epoch_age_seconds":82429,"freshness":"FRESH","line1":"1 64923U 25157V   26144.86911420  .00040322  00000+0  13642-2 0  9990","line2":"2 64923  53.1597 352.0754 0001466 119.1771 240.9376 15.30246807 47789","mean_motion":15.30246807,"eccentricity":0.0001466,"inclination_deg":53.1597,"raan_deg":352.0754,"arg_perigee_deg":119.1771,"mean_anomaly_deg":240.9376,"bstar":0.0013642,"rev_number":4778,"period_min":94.102467223772,"perigee_km":474.07063479127,"apogee_km":476.07999664224,"semimajor_km":6853.2123157168,"source":"CELESTRAK","updated_at":"2026-05-25T13:38:20.624859Z"}}}